DELTA 1 DEB, 42659

Orbit data source: Space-Track

DELTA 1 DEB, 42659 is space debris in SSO originally from a launch on Thu, 12 Jun 1975 UTC launched from the Air Force Western Test Range (AFWTR). Debris objects in space refer to the collection of defunct objects orbiting the Earth. Examples of debris include non-operational satellites, rocket bodies, and fragments generated from explosions, collisions, or faulty payload assembly.

Loading next visibility...
Identifier
42659, 1975-052MU
Orbit
SSO
Country
Flag of USUS
Related business
Manufacturer
Unknown
Mission
Spacecraft
Bus & Motor
Unknown
Mass
Unknown
Launch date (UTC)
1975-06-12 (50 years ago)
Launch vehicle
Unknown
Launch site
Air Force Western Test Range (AFWTR)
Object type
Payload
Rocket body
Debris
Shape & HBR
Unknown shape, 0.1 m
Radar Cross Section
Small (<0.1 m²)

Expand to show TLE details & history
Last TLE update: 1 day ago

TLE from 1 day ago
0 DELTA 1 DEB
1 42659U 75052MU  25305.59125316  .00010198  00000-0  89090-3 0  9990
2 42659  98.1880  58.2447 0000761  29.7203  31.0919 14.96997667643605
Epoch: 2025-11-01T14:11Z
TLE epoch observation values (Epoch: 2025-11-01T14:11:24.273Z)
Latitude
59.88734°
Longitude
149.98967°
Altitude
585.912 km
Speed
7.573 km/s
True Right ascension
02h 55m 50s
True Declination
59° 44' 03"
Sunlit
Object was in full shadow at epoch
Visualization orbit readout
Latitude
Unknown
Longitude
Unknown
Altitude
Unknown
Speed
Unknown
Apparent Right ascension
Unknown
Apparent Declination
Unknown
Sunlit
N/A
Visualization observer readout
Local Sidereal Time
12:01:21
Azimuth
Unknown
Elevation
Unknown
Doppler factor
Unknown
Orbital elements
Apogee altitude
573.739 km
Perigee altitude
572.681 km
Semi-major axis
6,951.347 km
Eccentricity
0.00008
Inclination
98.188°
RAAN
58.2447°
Arg. of periapsis
29.7203°
True anomaly
31.0964°
Mean anomaly
31.0919°
Eccentric anomaly
31.09415°
Mean motion
3.7449 °/min
Orbital period
96.13 mins
BSTAR
0.0008909
Loading maneuver chart data...
Computing Atmospheric mass density...

Documentation

Showing up to 5 results
|